Change the Weather History Date:

Friday, March 14, 2014

  Actual Average Record
Temperature  
Mean Temperature 51 °F 47 °F  
Max Temperature 65 °F 57 °F 82 °F (2012)
Min Temperature 36 °F 37 °F 13 °F (1960)
Degree Days  
Heating Degree Days 14 18  
Month to date heating degree days 323 282  
Since 1 July heating degree days 3977 3523  
Cooling Degree Days 0 0  
Month to date cooling degree days 0 0  
Year to date cooling degree days 0 0  
Moisture  
Dew Point 27 °F    
Average Humidity 38    
Maximum Humidity 49    
Minimum Humidity 26    
Precipitation  
Precipitation 0.00 in 0.14 in 1.31 in (1922)
Month to date precipitation 1.00 1.79  
Year to date precipitation 7.16 8.21  
Snow  
Snow 0.00 in 0.00 in 2.70 in (1975)
Month to date snowfall 3.0 0.8  
Since 1 July snowfall 24.8 11.8  
Snow Depth 0.00 in    
Sea Level Pressure  
Sea Level Pressure 29.98 in    
Wind  
Wind Speed 17 mph (SSW)    
Max Wind Speed 31 mph    
Max Gust Speed 44 mph    
Visibility 10 miles    
Events      
T = Trace of Precipitation, MM = Missing Value Source: NWS Daily Summary

Daily Weather History Graph

Daily Weather History Graph

Search for Another Location

Airport or City:

Trip Planner

Search our weather history database for the weather conditions in past years. The results will help you decide how hot, cold, wet, or windy it might be!

Date:

Astronomy

Mar. 14, 2014 Rise Set
Actual Time 7:55 AM EDT 7:49 PM EDT
Civil Twilight 7:29 AM EDT 8:15 PM EDT
Nautical Twilight 6:58 AM EDT 8:46 PM EDT
Astronomical Twilight 6:27 AM EDT 9:17 PM EDT
Moon 6:11 PM EDT (3/14) 6:33 AM EDT (3/14)
Length of Visible Light 12h 46m
Length of Day
11h 53m
Waxing Gibbous, 96% of the Moon is Illuminated
Mar 14
Waxing Gibbous
Mar 16
Full
Mar 23
Last Quarter
Mar 30
New
Apr 7
First Quarter

Hourly Weather History & Observations

Time (EDT) Temp. Windchill Dew Point Humidity Pressure Visibility Wind Dir Wind Speed Gust Speed Precip Events Conditions
12:56 AM 39.0 °F 34.0 °F 19.0 °F 45% 30.12 in 10.0 mi SSE 6.9 mph - N/A   Clear
1:56 AM 39.0 °F 34.0 °F 19.0 °F 45% 30.10 in 10.0 mi SSE 6.9 mph - N/A   Clear
2:56 AM 37.9 °F 32.7 °F 19.9 °F 48% 30.09 in 10.0 mi SE 6.9 mph - N/A   Clear
3:56 AM 41.0 °F 36.4 °F 21.0 °F 45% 30.07 in 10.0 mi SSE 6.9 mph - N/A   Clear
4:56 AM 45.0 °F 38.9 °F 21.9 °F 40% 30.06 in 10.0 mi South 12.7 mph - N/A   Clear
5:56 AM 44.1 °F 39.0 °F 23.0 °F 43% 30.04 in 10.0 mi South 9.2 mph - N/A   Clear
6:56 AM 44.1 °F 38.1 °F 25.0 °F 47% 30.05 in 10.0 mi SSW 11.5 mph - N/A   Partly Cloudy
7:56 AM 45.0 °F 39.7 °F 26.1 °F 48% 30.05 in 10.0 mi SSW 10.4 mph - N/A   Partly Cloudy
8:56 AM 48.0 °F - 27.0 °F 44% 30.05 in 10.0 mi SSW 13.8 mph - N/A   Partly Cloudy
9:56 AM 52.0 °F - 28.0 °F 40% 30.06 in 10.0 mi SSW 17.3 mph 29.9 mph N/A   Partly Cloudy
10:56 AM 57.0 °F - 28.0 °F 33% 30.04 in 10.0 mi SW 20.7 mph 28.8 mph N/A   Overcast
11:56 AM 61.0 °F - 28.9 °F 30% 30.00 in 10.0 mi SW 19.6 mph 29.9 mph N/A   Mostly Cloudy
12:56 PM 61.0 °F - 28.0 °F 29% 29.99 in 10.0 mi SW 21.9 mph 32.2 mph N/A   Overcast
1:56 PM 64.0 °F - 28.0 °F 26% 29.95 in 10.0 mi SW 25.3 mph 43.7 mph N/A   Mostly Cloudy
2:56 PM 62.1 °F - 28.0 °F 28% 29.91 in 10.0 mi SW 25.3 mph 34.5 mph N/A   Overcast
3:56 PM 63.0 °F - 28.0 °F 27% 29.89 in 10.0 mi SW 23.0 mph 38.0 mph N/A   Overcast
4:56 PM 64.0 °F - 28.0 °F 26% 29.87 in 10.0 mi SW 26.5 mph 36.8 mph N/A   Mostly Cloudy
5:56 PM 64.0 °F - 28.0 °F 26% 29.86 in 10.0 mi SW 24.2 mph 34.5 mph N/A   Overcast
6:56 PM 62.1 °F - 28.9 °F 29% 29.87 in 10.0 mi SW 17.3 mph 24.2 mph N/A   Overcast
7:56 PM 61.0 °F - 30.0 °F 31% 29.87 in 10.0 mi SW 18.4 mph 26.5 mph N/A   Overcast
8:56 PM 60.1 °F - 34.0 °F 38% 29.89 in 10.0 mi SW 21.9 mph 33.4 mph N/A   Mostly Cloudy
9:56 PM 57.9 °F - 33.1 °F 39% 29.92 in 10.0 mi SW 13.8 mph 26.5 mph N/A   Mostly Cloudy
10:56 PM 57.0 °F - 32.0 °F 39% 29.94 in 10.0 mi SW 18.4 mph 23.0 mph N/A   Scattered Clouds
11:56 PM 55.9 °F - 32.0 °F 40% 29.94 in 10.0 mi SW 13.8 mph 21.9 mph N/A   Scattered Clouds